Location: Cold Norton
(51.6667°N, 0.6667°E)
Time: 02:24:38
(UTC+00:00)

Cosmos 2061 Rocket - Pass Details

Date: 18 November 2025
Orbit: 964 x 1012 km, 82.9° (Epoch: 13 December)

Event Time Altitude Azimuth Distance (km) Brightness Sun altitude
Rises 17:32:12 0° 196° (SSW) 3,691 7.5 -13.5°
Reaches altitude 10° 17:34:45 10° 199° (SSW) 2,739 6.8 -13.9°
Maximum altitude 17:41:00 69° 282° (WNW) 1,046 4.4 -14.9°
Drops below altitude 10° 17:47:14 10° 7° (N) 2,727 6.2 -15.8°
Sets 17:49:46 0° 10° (N) 3,674 6.8 -16.2°
